Lid_Strength_Index
3 3 3 3 3 3 3 3 3 2 2 2 2 2 2 2 3 4 9 5 3 -1 -1 1 2 4 3 5 4 5 11 13 12 12 10 7 8 5 4 6 5 4 5 4 2
3 3 3 3 3 3 3 3 3 3 3 2 2 2 2 2 4 7 3 -2 -2 -1 2 3 5 4 7 6 6 9 11 11 8 8 9 7 7 7 7 7 6 6 4 3 3
4 3 3 3 3 3 3 3 3 3 3 3 2 2 2 2 8 8 -3 -3 -2 -1 2 2 3 4 7 6 7 8 11 8 8 7 6 7 7 6 7 9 7 7 6 4 4
4 3 3 3 3 3 3 3 3 3 3 3 3 2 1 4 13 3 -3 -1 -1 0 4 6 6 8 8 8 6 9 7 7 7 6 6 7 6 7 7 7 4 4 4 4 4
4 4 4 4 4 3 3 3 3 3 3 3 3 2 5 12 10 5 -2 -1 0 2 5 6 5 7 9 9 7 8 7 6 6 6 6 6 7 7 7 5 4 4 4 4 4
4 4 4 4 4 4 4 4 4 3 3 3 2 2 7 14 8 1 0 2 5 5 6 4 5 5 7 8 9 9 6 7 6 6 6 7 7 7 6 4 5 4 5 4 4
4 4 4 4 4 4 4 4 4 3 3 3 2 2 7 12 4 2 3 3 4 6 6 5 5 6 6 9 9 10 11 8 7 6 7 6 9 9 6 5 6 5 5 4 4
4 4 4 4 4 4 4 4 4 3 3 2 1 4 10 7 5 5 6 5 6 5 3 2 4 5 7 8 9 11 12 13 9 7 7 7 12 8 5 6 6 6 5 5 4
4 4 4 4 4 4 4 5 4 3 2 1 6 7 9 2 5 5 6 6 8 8 5 4 6 8 8 11 13 13 15 14 12 7 8 9 12 8 5 6 7 6 5 5 5
5 5 5 5 5 5 5 4 4 3 2 2 3 8 7 6 6 7 7 7 8 9 8 8 10 11 11 13 15 14 14 15 14 11 8 10 10 8 6 6 7 6 6 5 5
5 5 5 5 5 5 6 10 11 12 6 9 8 7 6 4 6 8 8 8 9 9 11 10 11 12 11 12 11 12 13 14 12 11 9 10 11 9 7 7 7 7 6 6 5
5 5 5 5 5 5 8 9 11 9 12 8 7 5 5 6 8 8 8 10 11 13 12 12 12 9 9 10 11 11 12 14 12 11 11 10 11 9 7 7 7 7 6 6 5
5 6 5 6 6 8 9 9 7 9 13 10 8 9 8 7 9 9 9 10 11 12 13 14 11 8 8 10 11 14 14 13 13 11 9 10 13 11 8 7 6 6 5 5 5
5 6 6 7 9 10 8 7 6 9 15 12 11 8 8 9 11 7 8 9 12 12 12 13 10 9 9 9 10 14 11 11 12 14 15 11 18 13 10 9 8 7 6 5 5
5 6 6 7 10 9 8 7 8 9 18 10 10 7 10 10 10 9 8 10 12 12 12 13 12 11 11 10 9 11 10 12 12 14 13 13 15 13 11 11 9 7 6 5 5
6 6 7 8 10 8 7 8 9 14 16 11 10 11 11 11 9 8 9 9 10 12 13 12 10 11 10 9 9 9 11 12 15 14 17 13 14 15 13 11 9 7 6 5 5
6 7 7 7 10 8 8 9 14 16 10 12 13 12 12 12 10 10 10 12 13 16 17 13 12 11 9 12 11 11 14 17 19 19 18 15 15 12 10 8 8 7 7 5 5
7 7 8 7 8 8 9 10 16 12 13 11 11 12 12 11 11 10 11 12 12 14 16 17 16 12 9 11 12 12 13 16 20 20 17 13 16 12 8 7 6 6 6 5 5
7 10 10 8 6 7 10 14 14 13 11 11 11 12 12 10 10 11 12 12 11 13 15 15 14 10 9 10 10 13 13 12 17 19 18 17 14 11 10 8 7 7 6 6 5
10 10 9 7 6 9 11 13 12 11 10 11 13 12 13 12 11 12 12 11 10 9 12 13 15 13 9 10 11 11 11 14 16 19 20 18 16 15 11 9 8 8 7 6 5
10 9 7 7 7 10 13 13 10 9 10 11 13 13 13 13 12 13 13 11 10 9 10 13 14 13 12 13 14 13 14 14 15 16 18 20 17 13 10 9 9 7 7 6 6
10 11 6 8 11 12 13 11 8 9 9 10 10 11 12 12 13 12 12 11 9 10 12 12 14 16 14 11 12 13 14 15 16 17 17 17 16 11 9 8 8 8 7 6 5
12 11 7 9 14 14 12 10 9 10 10 10 10 10 10 11 13 11 10 8 8 10 13 12 15 17 15 14 12 13 13 14 16 16 16 16 15 9 9 8 7 7 6 6 6
11 12 11 11 12 12 12 11 10 8 9 9 11 11 10 11 10 11 11 8 8 8 5 9 14 15 17 15 13 13 13 13 15 16 16 15 13 10 10 10 8 8 7 7 6
11 11 12 14 12 11 12 10 10 10 9 10 10 10 11 13 12 12 10 10 9 8 10 12 15 14 14 12 12 12 13 12 15 15 15 14 13 10 10 10 9 7 7 7 6
11 12 11 12 12 12 11 12 10 10 10 11 10 9 10 12 11 13 12 12 13 10 12 13 15 14 14 11 11 12 11 11 12 13 12 13 12 9 9 8 8 8 7 7 7
9 10 11 11 12 12 11 10 9 10 9 8 8 10 11 10 9 10 10 10 11 12 13 13 15 14 16 12 11 14 12 12 12 11 12 14 12 9 9 9 8 8 7 7 6